Погода в Бате

Великобритания     51°22′45″N   2°22′03″W
темп.,
°C
ветер,
м/с
пор.,
м/с
влажн.,
%
обл.,
%
осадки,
мм/ч
давл.,
гПа
погр.,
м
28 сентября, вт
вт2801:00+10ююз5118747 0.0 1018350
04:00+9ю41093100 0.0 1017240
07:00+12ююз41185100 0.6 1017507
10:00+13ю61382100 0.1 1015921
13:00+13ю81483100 0.5 10131044
16:00+13ю91686100 0.3 10111135
19:00+12зюз61089100 5.1 1010543
22:00+9юз389676 0.1 1012175
29 сентября, ср
ср2901:00+9з410900 0.1 1013305
04:00+7з410905 0.0 1015238
07:00+7з512910 0.0 1018427
10:00+10зсз711760 0.0 1021915
13:00+13зсз8105315 0.1 10231876
16:00+13зсз79475 0.0 10241929
19:00+9зсз486688 0.0 1027180
22:00+7зюз348012 0.0 102763
30 сентября, чт
чт3001:00+6юз3589100 0.0 102790
04:00+7ююз41278100 0.0 1025306
07:00+10ююз71477100 0.0 1023601
10:00+12ююз91680100 0.0 1021866
13:00+12ююз91789100 0.5 1019866
16:00+13ююз91690100 0.4 1017873
19:00+14юз61294100 0.6 1016719
22:00+14юз71396100 0.4 1016812
1 октября, пт
пт101:00+14юз71393100 0.6 1015754
04:00+14ююз71395100 0.1 1012747
07:00+13ю71598100 0.1 1010556
10:00+15ююз81485100 0.0 10091013
13:00+15юз81486100 0.9 10071231
16:00+12зюз6109059 2.4 1008730
19:00+11зюз510906 2.5 1009397
22:00+9з59936 0.0 1011295
2 октября, сб
сб201:00+6зсз388929 0.0 1013163
04:00+5юз22930 0.0 101333
07:00+6ю4993100 0.0 1011182
10:00+10ю61280100 0.0 1009701
13:00+11ююз91486100 1.3 10061399
16:00+10ююз81390100 3.2 10011269
19:00+9ююз61293100 7.2 996529
22:00+8зсз5794100 2.3 994362